Terminal Aerodrome Forecast
Issued by NWS

Home | Current Version | Previous Version | Graphics & Text | Print | Product List | Glossary On
Versions: 1 2 3 4 5 6 7 8 9 10 11 12 13 14 15 16 17 18 19 20 21 22 23 24 25 26 27 28 29 30 31 32 33 34 35 36 37 38 39 40
000
FTUS43 KGRB 191137
TAFRHI
TAF
KRHI 191137Z 1912/2012 28009KT 5SM -SN OVC025
      TEMPO 1914/1916 P6SM NSW SCT025
     FM191600 28009KT P6SM SCT035
     FM192000 26008KT P6SM SCT050 BKN090
     FM200200 24004KT P6SM SCT090=

USA.gov is the U.S. government's official web portal to all federal, state and local government web resources and services.